Location: Alsip
(41.6689°N, 87.7387°W)
Time: 03:47:38
(UTC+00:00)

GEOS 3 Rocket - Visible Passes

Search period start: 23 October 2020 00:00
Search period end: 02 November 2020 00:00
Orbit: 770 x 849 km, 115.0° (Epoch: 22 October)

Date Brightness Start Highest point End Pass type
(mag) Time Alt. Az. Time Alt. Az. Time Alt. Az.
23 Oct 3.6 00:28:05 17° SE 00:32:09 76° NE 00:37:33 10° NNW visible
23 Oct 5.8 02:09:14 17° SW 02:10:36 19° WSW 02:14:16 10° WNW visible
24 Oct 4.0 00:04:10 14° ESE 00:08:27 46° NE 00:13:34 10° NNW visible
24 Oct 5.0 01:45:18 30° SW 01:46:31 33° WSW 01:51:21 10° NW visible
24 Oct 4.6 23:40:18 10° E 23:44:51 30° NE 23:49:27 10° NNW visible
25 Oct 4.1 01:21:19 47° S 01:22:34 59° WSW 01:27:53 10° NW visible
25 Oct 5.1 23:17:34 10° E 23:21:22 20° NE 23:25:11 10° N visible
26 Oct 3.5 00:57:17 50° SE 00:58:43 82° NE 01:04:08 10° NW visible
26 Oct 6.1 02:38:25 16° W 02:38:25 16° W 02:40:36 10° WNW visible
27 Oct 3.9 00:33:12 36° E 00:35:00 50° NE 00:40:11 10° NNW visible
27 Oct 5.4 02:14:20 28° W 02:14:20 28° W 02:17:50 10° NW visible
28 Oct 4.5 00:09:04 23° E 00:11:23 32° NE 00:16:05 10° NNW visible
28 Oct 4.6 01:50:12 46° W 01:50:12 46° W 01:54:26 10° NW visible
28 Oct 5.0 23:44:55 14° ENE 23:47:52 21° NE 23:51:51 10° NNW visible
29 Oct 3.8 01:26:02 68° NW 01:26:02 68° NW 01:30:43 10° NW visible
29 Oct 5.4 23:21:33 10° ENE 23:24:28 15° NNE 23:27:24 10° N visible
30 Oct 3.9 01:01:51 53° NE 01:01:51 53° NE 01:06:48 10° NNW visible
30 Oct 6.2 02:42:58 16° WNW 02:42:58 16° WNW 02:44:18 10° WNW visible
31 Oct 4.4 00:37:37 34° NE 00:37:55 34° NE 00:42:43 10° NNW visible
31 Oct 5.7 02:18:44 24° WNW 02:18:44 24° WNW 02:20:58 10° NW visible
01 Nov 4.9 00:13:21 22° NE 00:14:23 23° NE 00:18:30 10° NNW visible
01 Nov 5.1 01:54:29 32° NW 01:54:29 32° NW 01:57:17 10° NW visible
01 Nov 5.4 23:49:04 13° NE 23:50:58 16° NNE 23:54:06 10° N visible
